Weather History for Sarasota, FL

Change the Weather History Date:

Wednesday, August 21, 2013

  Actual Average Record
Temperature  
Mean Temperature 84 °F 82 °F  
Max Temperature 94 °F 90 °F 97 °F (1919)
Min Temperature 74 °F 74 °F 68 °F (1927)
Degree Days  
Heating Degree Days 0 0  
Month to date heating degree days 0 0  
Since 1 June heating degree days 0 0  
Since 1 July heating degree days 0 0  
Cooling Degree Days 19 17  
Month to date cooling degree days 397 357  
Year to date cooling degree days 2327 2119  
Since 1 June cooling degree days 1459 1368  
Growing Degree Days 34 (Base 50)    
Moisture  
Dew Point 74 °F    
Average Humidity 83    
Maximum Humidity 94    
Minimum Humidity 49    
Precipitation  
Precipitation 0.53 in 0.32 in 2.85 in (1981)
Month to date precipitation 6.03 6.20  
Year to date precipitation 33.32 35.39  
Sea Level Pressure  
Sea Level Pressure 30.04 in    
Wind  
Wind Speed 7 mph (ENE)    
Max Wind Speed 35 mph    
Max Gust Speed 44 mph    
Visibility 9 miles    
Events Rain , Thunderstorm    
T = Trace of Precipitation, MM = Missing Value Source: NWS Daily Summary

Daily Weather History Graph

Daily Weather History Graph

Search for Another Location

Airport:

Trip Planner

Search our weather history database for the weather conditions in past years. The results will help you decide how hot, cold, wet, or windy it might be!

Date:

Astronomy

Aug. 21, 2013 Rise Set
Actual Time 7:04 AM EDT 8:01 PM EDT
Civil Twilight 6:40 AM EDT 8:26 PM EDT
Nautical Twilight 6:11 AM EDT 8:54 PM EDT
Astronomical Twilight 5:42 AM EDT 9:23 PM EDT
Moon 8:21 PM EDT (8/21) 7:34 AM EDT (8/21)
Length of Visible Light 13h 45m
Length of Day
12h 57m
Full, 100% of the Moon is Illuminated
Aug 21
Full
Aug 28
Last Quarter
Sep 5
New
Sep 12
First Quarter
Sep 19
Full

Hourly Weather History & Observations

Time (EDT) Temp. Heat Index Dew Point Humidity Pressure Visibility Wind Dir Wind Speed Gust Speed Precip Events Conditions
12:53 AM 77.0 °F - 73.9 °F 90% 30.07 in 10.0 mi NE 6.9 mph - N/A   Clear
1:53 AM 77.0 °F - 73.9 °F 90% 30.07 in 10.0 mi ENE 3.5 mph - N/A   Clear
2:53 AM 77.0 °F - 73.9 °F 90% 30.05 in 10.0 mi ENE 6.9 mph - N/A   Clear
3:53 AM 77.0 °F - 75.0 °F 94% 30.03 in 10.0 mi ENE 6.9 mph - N/A   Clear
4:53 AM 78.1 °F - 75.0 °F 90% 30.03 in 10.0 mi East 5.8 mph - N/A   Clear
5:53 AM 78.1 °F - 75.0 °F 90% 30.04 in 10.0 mi East 4.6 mph - N/A   Clear
6:53 AM 78.1 °F - 75.0 °F 90% 30.05 in 10.0 mi East 5.8 mph - N/A   Clear
7:53 AM 79.0 °F - 75.0 °F 88% 30.06 in 10.0 mi ENE 5.8 mph - N/A   Clear
8:53 AM 81.0 °F 86.7 °F 75.0 °F 82% 30.07 in 10.0 mi East 9.2 mph - N/A   Clear
9:53 AM 84.0 °F 92.6 °F 75.9 °F 76% 30.08 in 10.0 mi ESE 11.5 mph - N/A   Clear
10:53 AM 86.0 °F 96.0 °F 75.9 °F 72% 30.08 in 10.0 mi East 10.4 mph - N/A   Clear
11:53 AM 88.0 °F 97.5 °F 75.0 °F 65% 30.08 in 10.0 mi East 12.7 mph - N/A   Partly Cloudy
12:53 PM 90.0 °F 99.0 °F 73.9 °F 59% 30.05 in 10.0 mi East 8.1 mph - N/A   Partly Cloudy
1:53 PM 91.9 °F 101.3 °F 73.9 °F 55% 30.04 in 10.0 mi ENE 10.4 mph - N/A   Scattered Clouds
2:53 PM 93.0 °F 100.7 °F 72.0 °F 50% 30.01 in 10.0 mi East 9.2 mph - N/A   Partly Cloudy
3:53 PM 91.9 °F 99.5 °F 72.0 °F 52% 29.98 in 10.0 mi ENE 6.9 mph 16.1 mph N/A   Mostly Cloudy
4:28 PM 87.8 °F 95.6 °F 73.4 °F 62% 29.98 in 5.0 mi ESE 18.4 mph 34.5 mph 0.02 in Rain , Thunderstorm Rain
4:35 PM 82.4 °F 88.2 °F 73.4 °F 74% 29.99 in 5.0 mi ESE 24.2 mph 36.8 mph 0.02 in Rain , Thunderstorm Rain
4:49 PM 75.2 °F - 71.6 °F 89% 30.01 in 1.0 mi East 17.3 mph 43.7 mph 0.32 in Rain , Thunderstorm Thunderstorms and Rain
4:53 PM 75.0 °F - 71.1 °F 87% 30.01 in 1.0 mi SE 17.3 mph 43.7 mph 0.37 in Rain , Thunderstorm Thunderstorms and Rain
5:03 PM 75.2 °F - 73.4 °F 94% 30.02 in 2.0 mi SSE 6.9 mph - 0.09 in Rain , Thunderstorm Thunderstorms and Rain
5:07 PM 75.2 °F - 71.6 °F 89% 30.02 in 4.0 mi South 8.1 mph - 0.09 in Rain , Thunderstorm Thunderstorms and Rain
5:21 PM 75.2 °F - 71.6 °F 89% 30.02 in 10.0 mi West 3.5 mph - 0.10 in Rain , Thunderstorm Rain
5:53 PM 75.9 °F - 73.0 °F 91% 30.02 in 10.0 mi Calm Calm - 0.11 in   Partly Cloudy
6:06 PM 75.2 °F - 73.4 °F 94% 30.03 in 10.0 mi NE 3.5 mph - N/A Thunderstorm Partly Cloudy
6:21 PM 77.0 °F - 73.4 °F 89% 30.05 in 10.0 mi NNE 6.9 mph - N/A   Scattered Clouds
6:43 PM 77.0 °F - 75.2 °F 94% 30.03 in 10.0 mi NE 5.8 mph - N/A Thunderstorm Thunderstorm
6:53 PM 78.1 °F - 75.0 °F 90% 30.02 in 10.0 mi ENE 5.8 mph - 0.00 in Rain , Thunderstorm Light Thunderstorms and Rain
7:20 PM 78.8 °F - 75.2 °F 89% 30.03 in 10.0 mi ENE 5.8 mph - 0.00 in   Partly Cloudy
7:30 PM 78.8 °F - 75.2 °F 89% 30.03 in 10.0 mi NE 5.8 mph - 0.00 in Rain , Thunderstorm Light Rain
7:50 PM 78.8 °F - 75.2 °F 89% 30.04 in 10.0 mi ENE 5.8 mph - 0.01 in Rain Light Rain
7:53 PM 78.1 °F - 75.0 °F 90% 30.04 in 10.0 mi ENE 4.6 mph - 0.01 in Rain Light Rain
8:53 PM 78.1 °F - 75.9 °F 93% 30.05 in 10.0 mi NNE 3.5 mph - 0.03 in Rain Light Rain
9:53 PM 78.1 °F - 75.0 °F 90% 30.06 in 10.0 mi ENE 5.8 mph - 0.01 in   Mostly Cloudy
10:53 PM 78.1 °F - 75.0 °F 90% 30.05 in 10.0 mi ENE 6.9 mph - N/A   Clear
11:53 PM 78.1 °F - 75.9 °F 93% 30.05 in 10.0 mi East 6.9 mph - N/A   Clear